Time,TemperatureF,DewpointF,PressureIn,WindDirection,WindDirectionDegrees,WindSpeedMPH,WindSpeedGustMPH,Humidity,HourlyPrecipIn,Conditions,Clouds,dailyrainin,SoftwareType,DateUTC
2013-05-14 00:01:00,30.9,16.0,30.13,NW,315,0.0,0.0,54,0.00,,,0.00,WUHU21623XXSP,2013-05-14 04:01:00,
2013-05-14 00:06:00,30.9,16.0,30.13,NW,315,0.0,0.0,54,0.00,,,0.00,WUHU21623XXSP,2013-05-14 04:06:00,
2013-05-14 00:11:00,30.7,15.8,30.13,NW,315,0.0,0.0,54,0.00,,,0.00,WUHU21623XXSP,2013-05-14 04:11:00,
2013-05-14 00:16:00,30.7,15.8,30.13,NW,315,0.0,0.0,54,0.00,,,0.00,WUHU21623XXSP,2013-05-14 04:16:00,
2013-05-14 00:21:00,30.7,15.8,30.13,NW,315,0.0,0.0,54,0.00,,,0.00,WUHU21623XXSP,2013-05-14 04:21:00,
2013-05-14 00:26:00,30.6,15.7,30.13,NW,315,0.0,0.0,54,0.00,,,0.00,WUHU21623XXSP,2013-05-14 04:26:00,
2013-05-14 00:31:00,30.4,15.5,30.13,NW,315,0.0,0.0,54,0.00,,,0.00,WUHU21623XXSP,2013-05-14 04:31:00,
2013-05-14 00:39:00,30.4,15.5,30.13,NW,315,0.0,0.0,54,0.00,,,0.00,WUHU21623XXSP,2013-05-14 04:39:00,
2013-05-14 00:44:00,30.4,15.5,30.13,NW,315,0.0,0.0,54,0.00,,,0.00,WUHU21623XXSP,2013-05-14 04:44:00,
2013-05-14 00:51:00,30.2,15.4,30.13,NW,315,0.0,0.0,54,0.00,,,0.00,WUHU21623XXSP,2013-05-14 04:51:00,
2013-05-14 00:56:00,30.0,15.2,30.13,NW,315,0.0,0.0,54,0.00,,,0.00,WUHU21623XXSP,2013-05-14 04:56:00,
2013-05-14 01:01:00,30.0,15.5,30.13,NW,315,0.0,0.0,54,0.00,,,0.00,WUHU21623XXSP,2013-05-14 05:01:00,
2013-05-14 01:06:00,30.0,15.5,30.13,NW,315,0.0,0.0,54,0.00,,,0.00,WUHU21623XXSP,2013-05-14 05:06:00,
2013-05-14 01:11:00,29.8,15.3,30.13,NW,315,0.0,0.0,54,0.00,,,0.00,WUHU21623XXSP,2013-05-14 05:11:00,
2013-05-14 01:16:00,29.8,15.7,30.13,NW,315,0.0,0.0,55,0.00,,,0.00,WUHU21623XXSP,2013-05-14 05:16:00,
2013-05-14 01:21:00,29.7,15.6,30.14,NW,315,0.0,0.0,55,0.00,,,0.00,WUHU21623XXSP,2013-05-14 05:21:00,
2013-05-14 01:26:00,29.7,15.6,30.14,NW,315,0.0,0.0,55,0.00,,,0.00,WUHU21623XXSP,2013-05-14 05:26:00,
2013-05-14 01:31:00,29.5,15.4,30.14,NW,315,0.0,0.0,55,0.00,,,0.00,WUHU21623XXSP,2013-05-14 05:31:00,
2013-05-14 01:36:00,29.5,15.4,30.14,NW,315,0.0,0.0,55,0.00,,,0.00,WUHU21623XXSP,2013-05-14 05:36:00,
2013-05-14 01:41:00,29.5,15.7,30.14,NW,315,0.0,0.0,56,0.00,,,0.00,WUHU21623XXSP,2013-05-14 05:41:00,
2013-05-14 01:46:00,29.3,15.5,30.14,NW,315,0.0,0.0,56,0.00,,,0.00,WUHU21623XXSP,2013-05-14 05:46:00,
2013-05-14 01:51:00,29.3,15.5,30.14,NW,315,0.0,0.0,56,0.00,,,0.00,WUHU21623XXSP,2013-05-14 05:51:00,
2013-05-14 01:56:00,29.3,15.5,30.14,NW,315,0.0,0.0,56,0.00,,,0.00,WUHU21623XXSP,2013-05-14 05:56:00,
2013-05-14 02:01:00,29.1,15.4,30.14,NW,315,0.0,0.0,56,0.00,,,0.00,WUHU21623XXSP,2013-05-14 06:01:00,
2013-05-14 02:06:00,29.1,15.4,30.13,NW,315,0.0,0.0,56,0.00,,,0.00,WUHU21623XXSP,2013-05-14 06:06:00,
2013-05-14 02:11:00,29.1,15.4,30.14,NW,315,0.0,0.0,56,0.00,,,0.00,WUHU21623XXSP,2013-05-14 06:11:00,
2013-05-14 02:16:00,29.1,15.4,30.13,NW,315,0.0,0.0,56,0.00,,,0.00,WUHU21623XXSP,2013-05-14 06:16:00,
2013-05-14 02:21:00,29.1,15.4,30.13,NW,315,0.0,0.0,56,0.00,,,0.00,WUHU21623XXSP,2013-05-14 06:21:00,
2013-05-14 02:26:00,29.1,15.4,30.13,NW,315,0.0,0.0,56,0.00,,,0.00,WUHU21623XXSP,2013-05-14 06:26:00,
2013-05-14 02:31:00,29.1,15.4,30.13,NW,315,0.0,0.0,56,0.00,,,0.00,WUHU21623XXSP,2013-05-14 06:31:00,
2013-05-14 02:37:00,29.1,15.4,30.13,NW,315,0.0,0.0,56,0.00,,,0.00,WUHU21623XXSP,2013-05-14 06:37:00,
2013-05-14 02:42:00,28.9,15.2,30.13,NW,315,0.0,0.0,56,0.00,,,0.00,WUHU21623XXSP,2013-05-14 06:42:00,
2013-05-14 02:47:00,28.9,15.2,30.13,NW,315,0.0,0.0,56,0.00,,,0.00,WUHU21623XXSP,2013-05-14 06:47:00,
2013-05-14 02:52:00,28.9,15.2,30.13,NW,315,0.0,0.0,56,0.00,,,0.00,WUHU21623XXSP,2013-05-14 06:52:00,
2013-05-14 02:57:00,28.8,15.1,30.13,NW,315,0.0,0.0,56,0.00,,,0.00,WUHU21623XXSP,2013-05-14 06:57:00,
2013-05-14 03:02:00,28.8,15.1,30.13,NW,315,0.0,0.0,56,0.00,,,0.00,WUHU21623XXSP,2013-05-14 07:02:00,
2013-05-14 03:10:00,28.8,15.1,30.13,NW,315,0.0,0.0,56,0.00,,,0.00,WUHU21623XXSP,2013-05-14 07:10:00,
2013-05-14 03:15:00,28.8,15.4,30.13,NW,315,0.0,0.0,57,0.00,,,0.00,WUHU21623XXSP,2013-05-14 07:15:00,
2013-05-14 03:20:00,28.8,15.4,30.13,NW,315,0.0,0.0,57,0.00,,,0.00,WUHU21623XXSP,2013-05-14 07:20:00,
2013-05-14 03:27:00,28.9,15.5,30.13,NW,315,0.0,0.0,57,0.00,,,0.00,WUHU21623XXSP,2013-05-14 07:27:00,
2013-05-14 03:32:00,28.8,15.4,30.13,NW,315,0.0,0.0,57,0.00,,,0.00,WUHU21623XXSP,2013-05-14 07:32:00,
2013-05-14 03:37:00,28.8,15.4,30.13,NW,315,0.0,0.0,57,0.00,,,0.00,WUHU21623XXSP,2013-05-14 07:37:00,
2013-05-14 03:42:00,28.8,15.4,30.13,NW,315,0.0,0.0,57,0.00,,,0.00,WUHU21623XXSP,2013-05-14 07:42:00,
2013-05-14 03:47:00,28.8,15.7,30.13,NW,315,0.0,0.0,58,0.00,,,0.00,WUHU21623XXSP,2013-05-14 07:47:00,
2013-05-14 03:53:00,28.8,15.7,30.14,NW,315,0.0,0.0,58,0.00,,,0.00,WUHU21623XXSP,2013-05-14 07:53:00,
2013-05-14 03:58:00,28.6,15.5,30.14,NW,315,0.0,0.0,58,0.00,,,0.00,WUHU21623XXSP,2013-05-14 07:58:00,
2013-05-14 04:02:00,28.6,15.5,30.14,NW,315,0.0,0.0,58,0.00,,,0.00,WUHU21623XXSP,2013-05-14 08:02:00,
2013-05-14 04:10:00,28.6,15.5,30.14,NW,315,0.0,0.0,58,0.00,,,0.00,WUHU21623XXSP,2013-05-14 08:10:00,
2013-05-14 04:15:00,28.2,15.2,30.13,NW,315,0.0,0.0,58,0.00,,,0.00,WUHU21623XXSP,2013-05-14 08:15:00,
2013-05-14 04:20:00,28.2,15.5,30.13,NW,315,0.0,0.0,58,0.00,,,0.00,WUHU21623XXSP,2013-05-14 08:20:00,
2013-05-14 04:25:00,28.6,15.9,30.14,NW,315,0.0,0.0,58,0.00,,,0.00,WUHU21623XXSP,2013-05-14 08:25:00,
2013-05-14 04:31:00,28.2,15.5,30.14,NW,315,0.0,0.0,58,0.00,,,0.00,WUHU21623XXSP,2013-05-14 08:31:00,
2013-05-14 04:36:00,28.6,15.9,30.14,NW,315,0.0,0.0,58,0.00,,,0.00,WUHU21623XXSP,2013-05-14 08:36:00,
2013-05-14 04:41:00,28.8,15.7,30.14,NW,315,0.0,0.0,58,0.00,,,0.00,WUHU21623XXSP,2013-05-14 08:41:00,
2013-05-14 04:46:00,28.9,15.8,30.14,NW,315,0.0,0.0,58,0.00,,,0.00,WUHU21623XXSP,2013-05-14 08:46:00,
2013-05-14 04:51:00,29.1,16.0,30.13,NW,315,0.0,0.0,58,0.00,,,0.00,WUHU21623XXSP,2013-05-14 08:51:00,
2013-05-14 04:56:00,29.1,15.7,30.13,NW,315,0.0,0.0,57,0.00,,,0.00,WUHU21623XXSP,2013-05-14 08:56:00,
2013-05-14 05:01:00,29.1,15.7,30.13,NW,315,0.0,0.0,57,0.00,,,0.00,WUHU21623XXSP,2013-05-14 09:01:00,
2013-05-14 05:10:00,29.1,15.7,30.13,NW,315,0.0,0.0,57,0.00,,,0.00,WUHU21623XXSP,2013-05-14 09:10:00,
2013-05-14 05:15:00,29.1,15.7,30.14,NW,315,0.0,0.0,57,0.00,,,0.00,WUHU21623XXSP,2013-05-14 09:15:00,
2013-05-14 05:20:00,29.1,16.0,30.13,NW,315,0.0,0.0,58,0.00,,,0.00,WUHU21623XXSP,2013-05-14 09:20:00,
2013-05-14 05:25:00,29.1,15.7,30.14,NW,315,0.0,0.0,57,0.00,,,0.00,WUHU21623XXSP,2013-05-14 09:25:00,
2013-05-14 05:30:00,29.3,15.9,30.13,NW,315,0.0,0.0,57,0.00,,,0.00,WUHU21623XXSP,2013-05-14 09:30:00,
2013-05-14 05:35:00,29.5,16.4,30.13,NW,315,0.0,0.0,58,0.00,,,0.00,WUHU21623XXSP,2013-05-14 09:35:00,
2013-05-14 05:40:00,29.5,16.4,30.13,NW,315,0.0,0.0,58,0.00,,,0.00,WUHU21623XXSP,2013-05-14 09:40:00,
2013-05-14 05:45:00,29.8,16.7,30.13,NW,315,0.0,0.0,58,0.00,,,0.00,WUHU21623XXSP,2013-05-14 09:45:00,
2013-05-14 05:50:00,30.0,16.9,30.13,NW,315,0.0,0.0,58,0.00,,,0.00,WUHU21623XXSP,2013-05-14 09:50:00,
2013-05-14 05:55:00,30.2,16.7,30.13,NW,315,0.0,0.0,57,0.00,,,0.00,WUHU21623XXSP,2013-05-14 09:55:00,
2013-05-14 06:01:00,30.4,16.9,30.13,NW,315,0.0,0.0,57,0.00,,,0.00,WUHU21623XXSP,2013-05-14 10:01:00,
2013-05-14 06:06:00,30.4,16.6,30.13,NW,315,0.0,0.0,56,0.00,,,0.00,WUHU21623XXSP,2013-05-14 10:06:00,
2013-05-14 06:11:00,30.4,16.9,30.13,NW,315,0.0,0.0,57,0.00,,,0.00,WUHU21623XXSP,2013-05-14 10:11:00,
2013-05-14 06:17:00,30.2,16.7,30.13,NW,315,0.0,0.0,57,0.00,,,0.00,WUHU21623XXSP,2013-05-14 10:17:00,
2013-05-14 06:22:00,30.0,16.5,30.13,NW,315,0.0,0.0,57,0.00,,,0.00,WUHU21623XXSP,2013-05-14 10:22:00,
2013-05-14 06:27:00,30.0,16.5,30.13,NW,315,0.0,0.0,57,0.00,,,0.00,WUHU21623XXSP,2013-05-14 10:27:00,
2013-05-14 06:32:00,30.0,16.5,30.13,NW,315,0.0,0.0,57,0.00,,,0.00,WUHU21623XXSP,2013-05-14 10:32:00,
2013-05-14 06:37:00,30.0,16.5,30.13,NW,315,0.0,0.0,57,0.00,,,0.00,WUHU21623XXSP,2013-05-14 10:37:00,
2013-05-14 06:42:00,30.0,16.9,30.14,NW,315,0.0,0.0,58,0.00,,,0.00,WUHU21623XXSP,2013-05-14 10:42:00,
2013-05-14 06:47:00,30.0,16.9,30.14,NW,315,0.0,0.0,58,0.00,,,0.00,WUHU21623XXSP,2013-05-14 10:47:00,
2013-05-14 06:52:00,30.0,16.9,30.14,NW,315,0.0,0.0,58,0.00,,,0.00,WUHU21623XXSP,2013-05-14 10:52:00,
2013-05-14 06:57:00,30.0,16.9,30.14,NW,315,0.0,0.0,58,0.00,,,0.00,WUHU21623XXSP,2013-05-14 10:57:00,
2013-05-14 07:02:00,30.2,17.1,30.15,NW,315,0.0,0.0,58,0.00,,,0.00,WUHU21623XXSP,2013-05-14 11:02:00,
2013-05-14 07:07:00,30.6,17.1,30.15,NW,315,0.0,0.0,57,0.00,,,0.00,WUHU21623XXSP,2013-05-14 11:07:00,
2013-05-14 07:12:00,30.9,17.4,30.15,NW,315,0.0,0.0,57,0.00,,,0.00,WUHU21623XXSP,2013-05-14 11:12:00,
2013-05-14 07:18:00,31.6,18.0,30.15,NW,315,0.0,0.0,57,0.00,,,0.00,WUHU21623XXSP,2013-05-14 11:18:00,
2013-05-14 07:23:00,32.2,18.3,30.15,NW,315,0.0,0.0,56,0.00,,,0.00,WUHU21623XXSP,2013-05-14 11:23:00,
2013-05-14 07:28:00,32.7,18.7,30.15,NW,315,0.0,0.0,56,0.00,,,0.00,WUHU21623XXSP,2013-05-14 11:28:00,
2013-05-14 07:33:00,33.6,18.9,30.15,West,270,0.0,0.0,54,0.00,,,0.00,WUHU21623XXSP,2013-05-14 11:33:00,
2013-05-14 07:38:00,34.2,19.1,30.15,West,270,0.0,0.0,54,0.00,,,0.00,WUHU21623XXSP,2013-05-14 11:38:00,
2013-05-14 07:43:00,34.3,18.8,30.15,West,270,0.0,0.0,53,0.00,,,0.00,WUHU21623XXSP,2013-05-14 11:43:00,
2013-05-14 07:48:00,34.9,19.4,30.15,West,270,0.0,0.0,53,0.00,,,0.00,WUHU21623XXSP,2013-05-14 11:48:00,
2013-05-14 07:53:00,35.2,19.3,30.15,WSW,247,0.0,0.0,52,0.00,,,0.00,WUHU21623XXSP,2013-05-14 11:53:00,
2013-05-14 07:58:00,35.4,19.1,30.15,WSW,247,0.0,0.0,51,0.00,,,0.00,WUHU21623XXSP,2013-05-14 11:58:00,
2013-05-14 08:04:00,35.8,19.5,30.15,WSW,247,0.0,0.0,51,0.00,,,0.00,WUHU21623XXSP,2013-05-14 12:04:00,
2013-05-14 08:09:00,36.1,19.8,30.15,WSW,247,0.0,0.0,51,0.00,,,0.00,WUHU21623XXSP,2013-05-14 12:09:00,
2013-05-14 08:14:00,36.5,19.4,30.16,WSW,247,0.0,0.0,50,0.00,,,0.00,WUHU21623XXSP,2013-05-14 12:14:00,
2013-05-14 08:19:00,37.0,19.8,30.16,West,270,0.0,0.0,50,0.00,,,0.00,WUHU21623XXSP,2013-05-14 12:19:00,
2013-05-14 08:24:00,37.4,19.8,30.16,WSW,247,0.0,0.0,49,0.00,,,0.00,WUHU21623XXSP,2013-05-14 12:24:00,
2013-05-14 08:29:00,37.8,19.8,30.16,WSW,247,0.0,1.6,48,0.00,,,0.00,WUHU21623XXSP,2013-05-14 12:29:00,
2013-05-14 08:34:00,38.1,20.0,30.16,SW,225,0.0,2.0,48,0.00,,,0.00,WUHU21623XXSP,2013-05-14 12:34:00,
2013-05-14 08:39:00,38.5,20.4,30.16,WSW,247,2.7,2.7,48,0.00,,,0.00,WUHU21623XXSP,2013-05-14 12:39:00,
2013-05-14 08:44:00,38.8,20.3,30.16,SW,225,0.0,2.7,47,0.00,,,0.00,WUHU21623XXSP,2013-05-14 12:44:00,
2013-05-14 08:49:00,39.2,20.7,30.15,WSW,247,0.0,0.0,47,0.00,,,0.00,WUHU21623XXSP,2013-05-14 12:49:00,
2013-05-14 08:54:00,39.4,20.4,30.15,SW,225,0.0,0.0,46,0.00,,,0.00,WUHU21623XXSP,2013-05-14 12:54:00,
2013-05-14 08:59:00,39.4,20.0,30.15,SW,225,0.0,0.0,46,0.00,,,0.00,WUHU21623XXSP,2013-05-14 12:59:00,
2013-05-14 09:05:00,39.4,19.6,30.15,WSW,247,0.0,0.0,45,0.00,,,0.00,WUHU21623XXSP,2013-05-14 13:05:00,
2013-05-14 09:10:00,39.4,19.6,30.15,SW,225,0.0,0.0,45,0.00,,,0.00,WUHU21623XXSP,2013-05-14 13:10:00,
2013-05-14 09:15:00,39.4,19.1,30.15,SSW,202,0.0,1.1,44,0.00,,,0.00,WUHU21623XXSP,2013-05-14 13:15:00,
2013-05-14 09:20:00,39.4,19.6,30.15,WSW,247,0.0,1.1,45,0.00,,,0.00,WUHU21623XXSP,2013-05-14 13:20:00,
2013-05-14 09:25:00,39.4,19.6,30.15,SW,225,1.6,2.9,45,0.00,,,0.00,WUHU21623XXSP,2013-05-14 13:25:00,
2013-05-14 09:30:00,39.7,19.8,30.15,WNW,292,0.0,2.9,45,0.00,,,0.00,WUHU21623XXSP,2013-05-14 13:30:00,
2013-05-14 09:35:00,39.9,19.6,30.15,WSW,247,0.0,0.0,44,0.00,,,0.00,WUHU21623XXSP,2013-05-14 13:35:00,
2013-05-14 09:40:00,40.3,20.4,30.15,WSW,247,0.0,1.8,45,0.00,,,0.00,WUHU21623XXSP,2013-05-14 13:40:00,
2013-05-14 09:45:00,40.8,20.4,30.14,SSW,202,0.0,4.3,44,0.00,,,0.00,WUHU21623XXSP,2013-05-14 13:45:00,
2013-05-14 09:50:00,41.2,20.3,30.15,SW,225,0.0,4.3,43,0.00,,,0.00,WUHU21623XXSP,2013-05-14 13:50:00,
2013-05-14 09:55:00,41.5,20.6,30.15,SW,225,4.5,6.9,43,0.00,,,0.00,WUHU21623XXSP,2013-05-14 13:55:00,
2013-05-14 10:00:00,42.1,20.7,30.15,SW,225,2.2,6.9,42,0.00,,,0.00,WUHU21623XXSP,2013-05-14 14:00:00,
2013-05-14 10:05:00,42.6,21.2,30.14,WSW,247,2.5,5.4,42,0.00,,,0.00,WUHU21623XXSP,2013-05-14 14:05:00,
2013-05-14 10:10:00,43.0,21.1,30.14,WSW,247,3.4,7.4,42,0.00,,,0.00,WUHU21623XXSP,2013-05-14 14:10:00,
2013-05-14 10:15:00,43.5,21.5,30.14,SSW,202,1.3,7.4,42,0.00,,,0.00,WUHU21623XXSP,2013-05-14 14:15:00,
2013-05-14 10:20:00,43.9,20.9,30.15,West,270,5.6,7.2,40,0.00,,,0.00,WUHU21623XXSP,2013-05-14 14:20:00,
2013-05-14 10:25:00,44.2,21.2,30.14,WSW,257,4.2,10.3,40,0.00,,,0.00,WUHU21623XXSP,2013-05-14 14:25:00,
2013-05-14 10:30:00,44.4,21.4,30.13,WSW,258,4.1,10.3,40,0.00,,,0.00,WUHU21623XXSP,2013-05-14 14:30:00,
2013-05-14 10:35:00,45.0,21.9,30.14,WSW,255,5.2,9.2,40,0.00,,,0.00,WUHU21623XXSP,2013-05-14 14:35:00,
2013-05-14 10:40:00,45.1,21.5,30.14,WSW,247,5.6,9.2,39,0.00,,,0.00,WUHU21623XXSP,2013-05-14 14:40:00,
2013-05-14 10:45:00,45.5,21.9,30.13,SW,234,6.0,9.8,39,0.00,,,0.00,WUHU21623XXSP,2013-05-14 14:45:00,
2013-05-14 10:50:00,46.0,22.3,30.14,SW,231,8.2,13.6,39,0.00,,,0.00,WUHU21623XXSP,2013-05-14 14:50:00,
2013-05-14 10:55:00,46.2,22.5,30.13,SW,216,6.9,13.6,39,0.00,,,0.00,WUHU21623XXSP,2013-05-14 14:55:00,
2013-05-14 11:00:00,47.1,22.8,30.13,SW,235,6.6,12.3,38,0.00,,,0.00,WUHU21623XXSP,2013-05-14 15:00:00,
2013-05-14 11:05:00,48.0,23.6,30.13,SW,231,7.8,14.5,38,0.00,,,0.00,WUHU21623XXSP,2013-05-14 15:05:00,
2013-05-14 11:10:00,48.7,24.3,30.12,SW,225,6.0,14.5,38,0.00,,,0.00,WUHU21623XXSP,2013-05-14 15:10:00,
2013-05-14 11:16:00,49.3,24.3,30.12,SW,228,3.8,11.0,38,0.00,,,0.00,WUHU21623XXSP,2013-05-14 15:16:00,
2013-05-14 11:21:00,49.8,25.2,30.12,SW,225,2.3,11.0,38,0.00,,,0.00,WUHU21623XXSP,2013-05-14 15:21:00,
2013-05-14 11:26:00,50.5,25.4,30.12,SSW,202,8.3,10.7,38,0.00,,,0.00,WUHU21623XXSP,2013-05-14 15:26:00,
2013-05-14 11:31:00,51.1,25.4,30.11,WSW,255,7.7,13.9,37,0.00,,,0.00,WUHU21623XXSP,2013-05-14 15:31:00,
2013-05-14 11:36:00,50.7,25.0,30.11,SW,225,10.1,13.9,37,0.00,,,0.00,WUHU21623XXSP,2013-05-14 15:36:00,
2013-05-14 11:41:00,50.7,25.0,30.11,West,270,7.2,10.3,37,0.00,,,0.00,WUHU21623XXSP,2013-05-14 15:41:00,
2013-05-14 11:46:00,50.7,25.0,30.11,SW,232,5.3,11.0,37,0.00,,,0.00,WUHU21623XXSP,2013-05-14 15:46:00,
2013-05-14 11:51:00,50.9,25.2,30.11,WSW,246,4.0,11.0,37,0.00,,,0.00,WUHU21623XXSP,2013-05-14 15:51:00,
2013-05-14 11:56:00,51.4,25.1,30.11,SW,225,7.6,8.9,36,0.00,,,0.00,WUHU21623XXSP,2013-05-14 15:56:00,
2013-05-14 12:01:00,51.6,24.7,30.11,WNW,293,5.0,8.9,35,0.00,,,0.00,WUHU21623XXSP,2013-05-14 16:01:00,
2013-05-14 12:06:00,52.2,25.8,30.11,SW,232,4.7,7.4,36,0.00,,,0.00,WUHU21623XXSP,2013-05-14 16:06:00,
2013-05-14 12:11:00,52.9,25.9,30.11,WSW,247,7.8,11.4,35,0.00,,,0.00,WUHU21623XXSP,2013-05-14 16:11:00,
2013-05-14 12:16:00,53.4,26.3,30.10,SW,225,6.5,11.6,35,0.00,,,0.00,WUHU21623XXSP,2013-05-14 16:16:00,
2013-05-14 12:21:00,54.0,26.3,30.09,SW,236,5.5,11.6,34,0.00,,,0.00,WUHU21623XXSP,2013-05-14 16:21:00,
2013-05-14 12:26:00,54.3,26.6,30.10,NW,315,4.9,10.5,34,0.00,,,0.00,WUHU21623XXSP,2013-05-14 16:26:00,
2013-05-14 12:31:00,55.0,27.2,30.10,NW,318,5.1,8.7,34,0.00,,,0.00,WUHU21623XXSP,2013-05-14 16:31:00,
2013-05-14 12:36:00,55.6,27.1,30.09,WSW,256,4.1,10.1,34,0.00,,,0.00,WUHU21623XXSP,2013-05-14 16:36:00,
2013-05-14 12:41:00,55.2,26.2,30.09,WNW,290,5.2,10.1,33,0.00,,,0.00,WUHU21623XXSP,2013-05-14 16:41:00,
2013-05-14 12:46:00,54.0,25.2,30.09,SW,225,7.2,9.4,33,0.00,,,0.00,WUHU21623XXSP,2013-05-14 16:46:00,
2013-05-14 12:51:00,53.1,24.9,30.10,WSW,247,3.8,9.4,34,0.00,,,0.00,WUHU21623XXSP,2013-05-14 16:51:00,
2013-05-14 12:56:00,52.3,24.8,30.10,NW,315,3.1,8.5,34,0.00,,,0.00,WUHU21623XXSP,2013-05-14 16:56:00,
2013-05-14 13:01:00,51.8,24.9,30.09,West,270,4.9,8.5,35,0.00,,,0.00,WUHU21623XXSP,2013-05-14 17:01:00,
2013-05-14 13:06:00,51.6,24.7,30.09,SSW,202,3.1,6.0,35,0.00,,,0.00,WUHU21623XXSP,2013-05-14 17:06:00,
2013-05-14 13:11:00,51.4,25.1,30.09,WNW,292,8.9,8.9,36,0.00,,,0.00,WUHU21623XXSP,2013-05-14 17:11:00,
2013-05-14 13:16:00,51.3,24.5,30.09,SW,225,3.1,8.9,35,0.00,,,0.00,WUHU21623XXSP,2013-05-14 17:16:00,
2013-05-14 13:21:00,50.9,24.1,30.09,WSW,239,5.4,9.4,35,0.00,,,0.00,WUHU21623XXSP,2013-05-14 17:21:00,
2013-05-14 13:26:00,50.9,24.7,30.09,NW,315,3.4,9.6,36,0.00,,,0.00,WUHU21623XXSP,2013-05-14 17:26:00,
2013-05-14 13:31:00,50.9,24.7,30.09,WSW,247,3.7,9.6,36,0.00,,,0.00,WUHU21623XXSP,2013-05-14 17:31:00,
2013-05-14 13:36:00,50.9,25.2,30.09,WSW,247,5.4,9.4,37,0.00,,,0.00,WUHU21623XXSP,2013-05-14 17:36:00,
2013-05-14 13:41:00,50.9,24.7,30.09,West,270,2.7,7.2,36,0.00,,,0.00,WUHU21623XXSP,2013-05-14 17:41:00,
2013-05-14 13:46:00,50.7,25.0,30.09,SW,225,2.5,5.6,37,0.00,,,0.00,WUHU21623XXSP,2013-05-14 17:46:00,
2013-05-14 13:51:00,50.4,24.7,30.09,SW,219,3.3,5.1,37,0.00,,,0.00,WUHU21623XXSP,2013-05-14 17:51:00,
2013-05-14 13:56:00,49.8,24.2,30.09,WNW,292,0.0,5.1,37,0.00,,,0.00,WUHU21623XXSP,2013-05-14 17:56:00,
2013-05-14 14:01:00,49.8,24.2,30.09,WSW,247,0.0,3.4,37,0.00,,,0.00,WUHU21623XXSP,2013-05-14 18:01:00,
2013-05-14 14:06:00,49.8,24.2,30.09,WSW,247,0.0,3.4,37,0.00,,,0.00,WUHU21623XXSP,2013-05-14 18:06:00,
2013-05-14 14:11:00,49.8,24.2,30.09,West,270,0.0,1.3,37,0.00,,,0.00,WUHU21623XXSP,2013-05-14 18:11:00,
2013-05-14 14:16:00,49.8,24.2,30.09,WSW,247,2.2,2.2,37,0.00,,,0.00,WUHU21623XXSP,2013-05-14 18:16:00,
2013-05-14 14:21:00,50.2,24.6,30.09,WSW,247,1.6,2.2,37,0.00,,,0.00,WUHU21623XXSP,2013-05-14 18:21:00,
2013-05-14 14:26:00,50.4,24.7,30.08,West,270,0.0,1.6,37,0.00,,,0.00,WUHU21623XXSP,2013-05-14 18:26:00,
2013-05-14 14:31:00,50.4,24.7,30.08,West,270,0.0,0.0,37,0.00,,,0.00,WUHU21623XXSP,2013-05-14 18:31:00,
2013-05-14 14:36:00,50.4,25.3,30.09,West,270,3.8,3.8,38,0.00,,,0.00,WUHU21623XXSP,2013-05-14 18:36:00,
2013-05-14 14:41:00,50.2,25.1,30.09,SW,236,4.2,7.6,38,0.00,,,0.00,WUHU21623XXSP,2013-05-14 18:41:00,
2013-05-14 14:46:00,50.0,24.9,30.09,West,270,2.9,10.1,38,0.00,,,0.00,WUHU21623XXSP,2013-05-14 18:46:00,
2013-05-14 14:52:00,49.6,25.6,30.08,South,180,0.0,9.4,39,0.00,,,0.00,WUHU21623XXSP,2013-05-14 18:52:00,
2013-05-14 14:57:00,48.9,25.4,30.09,WSW,247,0.0,4.9,40,0.00,,,0.00,WUHU21623XXSP,2013-05-14 18:57:00,
2013-05-14 15:03:00,48.2,25.3,30.09,WSW,247,0.0,5.4,41,0.00,,,0.00,WUHU21623XXSP,2013-05-14 19:03:00,
2013-05-14 15:09:00,48.0,25.1,30.08,WSW,247,0.0,0.0,41,0.00,,,0.00,WUHU21623XXSP,2013-05-14 19:09:00,
2013-05-14 15:14:00,48.0,25.1,30.08,WNW,292,0.0,0.0,41,0.00,,,0.00,WUHU21623XXSP,2013-05-14 19:14:00,
2013-05-14 15:19:00,48.0,25.1,30.08,WNW,292,0.0,0.0,41,0.00,,,0.00,WUHU21623XXSP,2013-05-14 19:19:00,
2013-05-14 15:24:00,48.0,25.1,30.08,West,270,0.0,0.0,41,0.00,,,0.00,WUHU21623XXSP,2013-05-14 19:24:00,
2013-05-14 15:29:00,48.0,24.6,30.07,West,270,0.0,0.0,40,0.00,,,0.00,WUHU21623XXSP,2013-05-14 19:29:00,
2013-05-14 15:34:00,48.4,25.0,30.07,West,270,0.0,0.0,40,0.00,,,0.00,WUHU21623XXSP,2013-05-14 19:34:00,
2013-05-14 15:39:00,48.4,25.0,30.06,WNW,292,0.0,0.0,40,0.00,,,0.00,WUHU21623XXSP,2013-05-14 19:39:00,
2013-05-14 15:44:00,48.6,24.7,30.06,WNW,292,0.0,0.0,39,0.00,,,0.00,WUHU21623XXSP,2013-05-14 19:44:00,
2013-05-14 15:49:00,48.9,25.4,30.06,WNW,292,0.0,0.0,40,0.00,,,0.00,WUHU21623XXSP,2013-05-14 19:49:00,
2013-05-14 15:54:00,49.3,25.8,30.06,WNW,292,0.0,0.0,40,0.00,,,0.00,WUHU21623XXSP,2013-05-14 19:54:00,
2013-05-14 15:59:00,49.6,26.1,30.06,WNW,292,0.0,0.0,40,0.00,,,0.00,WUHU21623XXSP,2013-05-14 19:59:00,
2013-05-14 16:04:00,50.2,27.1,30.05,WNW,292,0.0,0.0,41,0.00,,,0.00,WUHU21623XXSP,2013-05-14 20:04:00,
2013-05-14 16:09:00,50.5,27.4,30.04,NW,315,0.0,0.0,41,0.00,,,0.00,WUHU21623XXSP,2013-05-14 20:09:00,
2013-05-14 16:14:00,50.7,27.1,30.04,NNE,22,0.0,0.0,40,0.00,,,0.00,WUHU21623XXSP,2013-05-14 20:14:00,
2013-05-14 16:19:00,50.7,27.1,30.04,NE,45,0.0,0.0,40,0.00,,,0.00,WUHU21623XXSP,2013-05-14 20:19:00,
2013-05-14 16:24:00,50.5,26.9,30.04,East,90,0.0,0.0,40,0.00,,,0.00,WUHU21623XXSP,2013-05-14 20:24:00,
2013-05-14 16:30:00,50.2,26.6,30.04,ENE,67,0.0,0.0,40,0.00,,,0.00,WUHU21623XXSP,2013-05-14 20:30:00,
2013-05-14 16:35:00,49.8,26.3,30.04,ENE,67,0.0,0.0,40,0.00,,,0.00,WUHU21623XXSP,2013-05-14 20:35:00,
2013-05-14 16:43:00,49.6,26.1,30.04,ENE,67,0.0,0.0,40,0.00,,,0.00,WUHU21623XXSP,2013-05-14 20:43:00,
2013-05-14 16:48:00,49.5,26.5,30.04,ENE,67,0.0,0.0,41,0.00,,,0.00,WUHU21623XXSP,2013-05-14 20:48:00,
2013-05-14 16:53:00,49.1,25.6,30.05,ENE,67,0.0,0.0,40,0.00,,,0.00,WUHU21623XXSP,2013-05-14 20:53:00,
2013-05-14 16:58:00,48.9,25.9,30.04,NE,45,0.0,0.0,41,0.00,,,0.00,WUHU21623XXSP,2013-05-14 20:58:00,
2013-05-14 17:04:00,49.1,26.1,30.04,NE,45,0.0,0.0,41,0.00,,,0.00,WUHU21623XXSP,2013-05-14 21:04:00,
2013-05-14 17:10:00,49.1,27.1,30.04,NE,45,0.0,0.0,42,0.00,,,0.00,WUHU21623XXSP,2013-05-14 21:10:00,
2013-05-14 17:15:00,48.9,26.9,30.04,NE,45,0.0,0.0,42,0.00,,,0.00,WUHU21623XXSP,2013-05-14 21:15:00,
2013-05-14 17:22:00,48.7,26.7,30.03,NE,45,0.0,0.0,42,0.00,,,0.00,WUHU21623XXSP,2013-05-14 21:22:00,
2013-05-14 17:27:00,48.6,27.1,30.03,ENE,67,0.0,0.0,43,0.00,,,0.00,WUHU21623XXSP,2013-05-14 21:27:00,
2013-05-14 17:32:00,48.6,27.5,30.03,NE,45,0.0,0.0,44,0.00,,,0.00,WUHU21623XXSP,2013-05-14 21:32:00,
2013-05-14 17:37:00,48.4,27.8,30.03,NE,45,0.0,0.0,45,0.00,,,0.00,WUHU21623XXSP,2013-05-14 21:37:00,
2013-05-14 17:42:00,48.0,27.9,30.03,NE,45,0.0,0.0,46,0.00,,,0.00,WUHU21623XXSP,2013-05-14 21:42:00,
2013-05-14 17:47:00,48.0,28.3,30.02,NE,45,0.0,2.5,46,0.00,,,0.00,WUHU21623XXSP,2013-05-14 21:47:00,
2013-05-14 17:52:00,47.8,28.1,30.02,NE,45,0.0,2.5,46,0.00,,,0.00,WUHU21623XXSP,2013-05-14 21:52:00,
2013-05-14 17:57:00,47.8,28.1,30.02,NNE,22,0.0,0.0,46,0.00,,,0.00,WUHU21623XXSP,2013-05-14 21:57:00,
2013-05-14 18:02:00,47.5,27.9,30.01,NE,45,0.0,0.0,46,0.00,,,0.00,WUHU21623XXSP,2013-05-14 22:02:00,
2013-05-14 18:07:00,47.3,28.5,30.01,NE,45,0.0,0.0,48,0.00,,,0.00,WUHU21623XXSP,2013-05-14 22:07:00,
2013-05-14 18:12:00,46.9,29.0,30.01,NNE,22,0.0,0.0,50,0.00,,,0.00,WUHU21623XXSP,2013-05-14 22:12:00,
2013-05-14 18:17:00,46.8,29.7,30.01,NE,45,0.0,0.0,51,0.00,,,0.00,WUHU21623XXSP,2013-05-14 22:17:00,
2013-05-14 18:22:00,46.2,29.1,30.02,NE,45,0.0,0.0,51,0.00,,,0.00,WUHU21623XXSP,2013-05-14 22:22:00,
2013-05-14 18:27:00,46.2,29.1,30.01,NE,45,0.0,0.0,51,0.00,,,0.00,WUHU21623XXSP,2013-05-14 22:27:00,
2013-05-14 18:32:00,46.0,29.0,30.00,North,0,0.0,0.0,51,0.00,,,0.00,WUHU21623XXSP,2013-05-14 22:32:00,
2013-05-14 18:39:00,45.7,28.7,30.00,NNE,22,0.0,1.8,51,0.00,,,0.00,WUHU21623XXSP,2013-05-14 22:39:00,
2013-05-14 18:44:00,45.5,28.5,29.99,NNE,22,0.0,1.8,51,0.00,,,0.00,WUHU21623XXSP,2013-05-14 22:44:00,
2013-05-14 18:49:00,45.3,28.7,30.00,NE,45,1.6,1.6,52,0.00,,,0.00,WUHU21623XXSP,2013-05-14 22:49:00,
2013-05-14 18:54:00,45.1,28.9,29.99,NE,45,0.0,2.0,53,0.00,,,0.00,WUHU21623XXSP,2013-05-14 22:54:00,
2013-05-14 18:59:00,45.0,28.8,29.99,NE,51,1.1,8.3,53,0.00,,,0.00,WUHU21623XXSP,2013-05-14 22:59:00,
2013-05-14 19:04:00,45.0,29.2,29.99,NNE,22,0.0,8.3,54,0.00,,,0.00,WUHU21623XXSP,2013-05-14 23:04:00,
2013-05-14 19:09:00,44.8,29.4,29.99,NE,45,2.0,5.4,54,0.00,,,0.00,WUHU21623XXSP,2013-05-14 23:09:00,
2013-05-14 19:14:00,44.6,29.5,29.99,NE,45,0.0,2.0,55,0.00,,,0.00,WUHU21623XXSP,2013-05-14 23:14:00,
2013-05-14 19:20:00,44.4,29.4,29.99,NNE,22,3.4,3.4,55,0.00,,,0.00,WUHU21623XXSP,2013-05-14 23:20:00,
2013-05-14 19:27:00,44.2,29.5,29.99,NNE,22,0.0,3.4,56,0.00,,,0.00,WUHU21623XXSP,2013-05-14 23:27:00,
2013-05-14 19:33:00,44.1,29.4,29.99,NW,315,2.0,2.9,56,0.00,,,0.00,WUHU21623XXSP,2013-05-14 23:33:00,
2013-05-14 19:38:00,44.1,29.4,30.00,NNE,22,1.8,5.6,56,0.00,,,0.00,WUHU21623XXSP,2013-05-14 23:38:00,
2013-05-14 19:43:00,44.1,29.4,30.01,NNE,22,0.0,4.9,56,0.00,,,0.00,WUHU21623XXSP,2013-05-14 23:43:00,
2013-05-14 19:49:00,44.1,29.4,30.00,NNE,22,0.0,0.0,56,0.00,,,0.00,WUHU21623XXSP,2013-05-14 23:49:00,
2013-05-14 19:54:00,44.1,29.4,30.00,NE,34,1.4,2.0,56,0.00,,,0.00,WUHU21623XXSP,2013-05-14 23:54:00,
2013-05-14 19:59:00,44.1,29.8,30.00,ENE,68,1.9,2.2,57,0.00,,,0.00,WUHU21623XXSP,2013-05-14 23:59:00,
2013-05-14 20:04:00,43.9,29.6,30.00,ENE,67,1.1,2.2,57,0.00,,,0.00,WUHU21623XXSP,2013-05-15 00:04:00,
2013-05-14 20:09:00,43.5,29.6,30.00,NNE,22,1.8,4.0,58,0.00,,,0.00,WUHU21623XXSP,2013-05-15 00:09:00,
2013-05-14 20:15:00,43.3,29.7,30.00,NNE,18,2.7,4.7,58,0.00,,,0.00,WUHU21623XXSP,2013-05-15 00:15:00,
2013-05-14 20:24:00,43.0,29.8,30.00,NNE,22,2.7,4.5,59,0.00,,,0.00,WUHU21623XXSP,2013-05-15 00:24:00,
2013-05-14 20:29:00,42.6,29.8,30.00,NE,45,4.0,4.0,60,0.00,,,0.00,WUHU21623XXSP,2013-05-15 00:29:00,
2013-05-14 20:35:00,42.6,30.1,30.01,NE,40,2.5,6.7,61,0.00,,,0.00,WUHU21623XXSP,2013-05-15 00:35:00,
2013-05-14 20:42:00,42.4,29.9,30.01,NE,45,4.0,6.7,61,0.00,,,0.00,WUHU21623XXSP,2013-05-15 00:42:00,
2013-05-14 20:47:00,42.4,29.9,30.01,North,0,2.7,4.0,61,0.00,,,0.00,WUHU21623XXSP,2013-05-15 00:47:00,
2013-05-14 20:52:00,42.6,30.1,30.01,NNE,22,4.7,6.7,61,0.00,,,0.00,WUHU21623XXSP,2013-05-15 00:52:00,
2013-05-14 20:58:00,42.6,29.8,30.00,NNE,24,3.3,6.7,60,0.00,,,0.00,WUHU21623XXSP,2013-05-15 00:58:00,
2013-05-14 21:03:00,43.0,29.8,30.01,North,7,2.0,6.5,59,0.00,,,0.00,WUHU21623XXSP,2013-05-15 01:03:00,
2013-05-14 21:09:00,43.3,29.7,30.01,NE,48,4.1,11.0,58,0.00,,,0.00,WUHU21623XXSP,2013-05-15 01:09:00,
2013-05-14 21:14:00,43.5,29.9,30.00,ESE,104,3.9,11.0,58,0.00,,,0.00,WUHU21623XXSP,2013-05-15 01:14:00,
2013-05-14 21:19:00,43.5,29.9,30.00,NNE,22,2.9,5.8,58,0.00,,,0.00,WUHU21623XXSP,2013-05-15 01:19:00,
2013-05-14 21:24:00,43.7,30.1,30.00,NE,45,4.3,5.8,58,0.00,,,0.00,WUHU21623XXSP,2013-05-15 01:24:00,
2013-05-14 21:29:00,43.7,29.8,30.00,WNW,292,3.1,6.0,58,0.00,,,0.00,WUHU21623XXSP,2013-05-15 01:29:00,
2013-05-14 21:34:00,43.9,30.0,30.01,NNE,13,2.2,6.0,58,0.00,,,0.00,WUHU21623XXSP,2013-05-15 01:34:00,
2013-05-14 21:39:00,43.9,30.0,30.01,NNE,22,2.0,6.0,58,0.00,,,0.00,WUHU21623XXSP,2013-05-15 01:39:00,
2013-05-14 21:44:00,43.9,30.3,30.01,SE,135,0.4,6.0,58,0.00,,,0.00,WUHU21623XXSP,2013-05-15 01:44:00,
2013-05-14 21:49:00,43.7,29.8,30.00,NNE,30,3.5,4.3,58,0.00,,,0.00,WUHU21623XXSP,2013-05-15 01:49:00,
2013-05-14 21:54:00,43.9,30.0,30.00,ENE,65,5.1,6.7,58,0.00,,,0.00,WUHU21623XXSP,2013-05-15 01:54:00,
2013-05-14 21:59:00,44.1,29.8,30.00,ENE,67,9.6,9.6,57,0.00,,,0.00,WUHU21623XXSP,2013-05-15 01:59:00,
2013-05-14 22:04:00,44.2,29.5,30.00,North,352,2.5,9.6,56,0.00,,,0.00,WUHU21623XXSP,2013-05-15 02:04:00,
2013-05-14 22:09:00,44.4,29.7,30.00,North,0,5.1,5.8,56,0.00,,,0.00,WUHU21623XXSP,2013-05-15 02:09:00,
2013-05-14 22:15:00,44.4,30.1,30.00,NNE,19,3.5,5.4,57,0.00,,,0.00,WUHU21623XXSP,2013-05-15 02:15:00,
2013-05-14 22:19:00,44.4,29.7,30.00,North,7,1.7,5.4,56,0.00,,,0.00,WUHU21623XXSP,2013-05-15 02:19:00,
2013-05-14 22:24:00,44.4,29.7,30.00,NE,35,4.8,6.7,56,0.00,,,0.00,WUHU21623XXSP,2013-05-15 02:24:00,
2013-05-14 22:29:00,44.8,29.7,29.99,NE,49,3.6,6.7,55,0.00,,,0.00,WUHU21623XXSP,2013-05-15 02:29:00,
2013-05-14 22:34:00,45.0,29.9,29.99,NNE,22,2.0,6.3,55,0.00,,,0.00,WUHU21623XXSP,2013-05-15 02:34:00,
2013-05-14 22:40:00,45.1,29.6,29.99,WNW,292,0.0,7.8,54,0.00,,,0.00,WUHU21623XXSP,2013-05-15 02:40:00,
2013-05-14 22:45:00,45.1,29.6,29.99,NNE,23,3.6,7.8,54,0.00,,,0.00,WUHU21623XXSP,2013-05-15 02:45:00,
2013-05-14 22:50:00,45.1,29.6,29.99,NE,43,3.5,6.5,54,0.00,,,0.00,WUHU21623XXSP,2013-05-15 02:50:00,
2013-05-14 22:55:00,45.3,29.8,29.99,NE,37,4.8,7.4,54,0.00,,,0.00,WUHU21623XXSP,2013-05-15 02:55:00,
2013-05-14 23:00:00,45.3,29.5,29.99,WNW,292,1.3,8.3,54,0.00,,,0.00,WUHU21623XXSP,2013-05-15 03:00:00,
2013-05-14 23:06:00,45.7,29.4,29.99,NNW,348,3.1,5.4,53,0.00,,,0.00,WUHU21623XXSP,2013-05-15 03:06:00,
2013-05-14 23:11:00,46.0,29.3,29.98,NE,45,0.0,6.9,52,0.00,,,0.00,WUHU21623XXSP,2013-05-15 03:11:00,
2013-05-14 23:17:00,46.0,29.3,29.98,NNE,22,2.9,6.9,52,0.00,,,0.00,WUHU21623XXSP,2013-05-15 03:17:00,
2013-05-14 23:22:00,46.2,29.5,29.97,NE,43,3.3,6.0,52,0.00,,,0.00,WUHU21623XXSP,2013-05-15 03:22:00,
2013-05-14 23:27:00,46.2,29.5,29.97,South,180,4.7,7.4,52,0.00,,,0.00,WUHU21623XXSP,2013-05-15 03:27:00,
2013-05-14 23:32:00,46.2,29.5,29.97,NE,45,0.0,7.4,52,0.00,,,0.00,WUHU21623XXSP,2013-05-15 03:32:00,
2013-05-14 23:38:00,46.2,29.5,29.97,North,0,2.9,3.4,52,0.00,,,0.00,WUHU21623XXSP,2013-05-15 03:38:00,
2013-05-14 23:44:00,46.2,29.1,29.96,NNE,22,2.9,4.3,51,0.00,,,0.00,WUHU21623XXSP,2013-05-15 03:44:00,
2013-05-14 23:49:00,46.6,29.5,29.96,NNE,22,2.0,4.5,51,0.00,,,0.00,WUHU21623XXSP,2013-05-15 03:49:00,
2013-05-14 23:54:00,46.6,29.1,29.96,NNE,22,0.9,4.5,50,0.00,,,0.00,WUHU21623XXSP,2013-05-15 03:54:00,
2013-05-14 23:59:00,46.6,29.1,29.96,SSE,157,0.0,11.2,50,0.00,,,0.00,WUHU21623XXSP,2013-05-15 03:59:00,